TIME,DELAY(SENSOR),PRES,T(CTD),SAL,OXYGEN,RAWTEMP,T(OPTODE),TCPHASE,FLUOR,BETA(BETA700),BETA(BETA412),BETA(BETA440),CDOM,C(CSC),ED(ED411.90),ED(ED443.80),ED(ED489.40),ED(ED554.70),LU(LU412.20),LU(LU443.80),LU(LU489.40),LU(LU555.00),COMP,TILTX,TILTX(TILTY),CHECK
1348413328,5805,495.3399963378906000,17.4456005096435550,36.4555015563964840,230.3672943115234400,173.5939025878906200,17.4445705413818360,31.2077293395996100,50,100,96,77,61,13208,2146951506,2147513819,2147262784,2147466148,2147087561,2146953188,2147657417,2147123666,2070,-1,8,55452
1348413449,5806,484.7699890136719000,17.5457992553710940,36.4749984741210940,233.2671966552734400,170.3368988037109400,17.5428390502929700,31.0208702087402340,50,101,95,76,61,13238,2146955465,2147512064,2147261805,2147464740,2147086756,2146952146,2147652754,2147121929,1383,-1,8,3084
1348413583,5805,472.8399963378906000,17.6109008789062500,36.4869995117187500,233.8464965820312500,168.0847930908203000,17.6107997894287100,30.9621295928955080,50,100,96,77,61,13235,2146955419,2147513600,2147264310,2147465636,2147085238,2146953398,2147655168,2147123538,812,-1,8,50176
1348413704,5807,461.9500122070312500,17.6923007965087900,36.5012016296386700,234.4736022949218800,165.5222930908203000,17.6881408691406250,30.8971099853515620,50,99,95,76,61,13235,2146952713,2147512256,2147262308,2147463049,2147087323,2146954806,2147652690,2147121353,416,-1,8,15214
1348413828,5806,450.7500000000000000,17.7684001922607420,36.5144996643066400,235.5765075683593800,163.0892944335937500,17.7615699768066400,30.8111000061035160,51,101,97,78,61,13238,2146954880,2147514605,2147266020,2147465581,2147089042,2146953124,2147656201,2147121600,3383,-1,9,57060
1348413949,5809,439.8399963378906000,17.8342990875244140,36.5265998840332000,236.1661987304687500,160.8482055664062500,17.8292293548584000,30.7526493072509770,51,100,96,76,61,13238,2146957869,2147510912,2147263890,2147460150,2147086326,2146958720,2147653485,2147125732,2759,-1,8,31074
1348414070,5808,428.9299926757812500,17.8927001953125000,36.5368003845214840,236.5494995117187500,158.8975067138672000,17.8881206512451170,30.7081203460693360,50,101,97,77,60,13237,2146953892,2147512438,2147264036,2147462966,2147087762,2146956022,2147653860,2147125211,2238,-1,9,11379
1348414193,5802,417.7699890136719000,17.9333000183105470,36.5430984497070300,236.6858978271484400,157.5502929687500000,17.9288005828857420,30.6837902069091800,51,102,96,77,61,13235,2146953755,2147513243,2147267337,2147463332,2147088877,2146959296,2147651593,2147121600,1979,-1,8,33240
1348414314,5807,406.8999938964844000,17.9801998138427730,36.5498008728027340,236.8242034912109400,155.8601989746093800,17.9798393249511720,30.6547508239746100,50,102,97,77,60,13234,2146954633,2147515236,2147262308,2147460032,2147085732,2146953984,2147651465,2147122697,1604,-1,8,52062
1348414438,5804,395.8399963378906000,18.0193004608154300,36.5539016723632800,236.3955993652343800,154.6416015625000000,18.0166397094726560,30.6586799621582030,50,102,96,78,60,13230,2146955017,2147513581,2147264877,2147464064,2147085302,2146957147,2147651620,2147123904,1335,-1,8,28691
1348414559,5803,384.9899902343750000,18.0764999389648440,36.5620002746582000,235.4584045410156200,152.8970947265625000,18.0693302154541000,30.6803207397460940,50,102,96,77,61,13231,2146952265,2147514980,2147264146,2147457325,2147084754,2146956900,2147653613,2147125120,1330,-1,8,40713
1348414680,5805,374.3599853515625000,18.1088008880615230,36.5653991699218750,235.3558044433593800,151.7100982666015600,18.1051807403564450,30.6695709228515620,50,101,95,77,61,13232,2146955949,2147512658,2147264923,2147459081,2147085988,2146954852,2147649088,2147123986,1351,-1,8,61166
1348414803,5807,363.5599975585937500,18.1396999359130860,36.5651016235351560,234.0229949951172000,150.7033996582031200,18.1355895996093750,30.7202491760253900,50,101,97,77,60,13232,2146949824,2147512402,2147263012,2147457133,2147086509,2146962148,2147651657,2147128146,1021,-1,8,47871
1348414935,5806,352.0299987792969000,18.2112998962402340,36.5787010192871100,234.3227996826172000,148.3827056884765600,18.2056999206542970,30.6747894287109380,50,102,97,78,60,13231,2146955876,2147513398,2147263542,2147461001,2147087680,2146958811,2147651035,2147121517,876,-2,8,57733
1348415059,5804,341.3599853515625000,18.2520008087158200,36.5826988220214840,234.2835998535156200,146.9817047119140600,18.2480297088623050,30.6579608917236330,50,102,97,76,60,13228,2146954806,2147514395,2147263341,2147458861,2147083437,2146960338,2147653677,2147123885,479,-1,9,26904
1348415191,5810,330.2500000000000000,18.3078994750976560,36.5886993408203100,233.8292999267578000,145.1826019287109400,18.3024005889892580,30.6558895111084000,50,101,97,77,60,13228,2146954322,2147511881,2147263213,2147459264,2147087981,2146956041,2147653833,2147124416,58,-1,8,39515
1348415323,5805,319.5299987792969000,18.3840007781982420,36.5942993164062500,232.4355010986328000,142.7642974853515600,18.3754806518554700,30.6914005279541000,50,107,96,78,61,13227,2146954925,2147512210,2147261330,2147456457,2147080530,2146957650,2147650395,2147121106,2937,-1,8,17953
1348415457,5808,309.0199890136719000,18.4319000244140620,36.5983009338378900,231.5816040039062500,140.8945007324218800,18.4319992065429700,30.7081604003906250,51,102,97,78,60,13229,2146955200,2147509696,2147264402,2147455186,2147083419,2146957796,2147651638,2147122752,2637,-1,8,45733
1348415611,5808,297.3399963378906000,18.5060005187988280,36.6036987304687500,229.9944000244140600,138.6087036132812500,18.5011100769042970,30.7554302215576170,51,101,96,77,61,13228,2146952192,2147513828,2147265353,2147459712,2147081499,2146961088,2147654976,2147127094,2708,-1,9,26340
1348415745,5809,286.0199890136719000,18.5907001495361330,36.6053009033203100,228.7382965087890600,135.6269073486328000,18.5912704467773440,30.7775707244873050,50,102,95,78,62,13227,2146953060,2147511606,2147266102,2147456082,2147079030,2146960475,2147652571,2147123328,2672,-1,8,10543
1348415855,5804,275.3200073242187500,18.6884002685546880,36.6111984252929700,227.3354949951172000,132.0935058593750000,18.6981391906738280,30.8002395629882800,52,101,95,78,61,13229,2146958235,2147511213,2147262180,2147457097,2147080329,2146960429,2147650413,2147125568,2492,-1,9,40429
1348415976,5807,263.8599853515625000,18.8530998229980470,36.6152992248535160,226.9492034912109400,126.7016983032226600,18.8612804412841800,30.7476806640625000,51,101,97,77,60,13229,2146955382,2147512054,2147263533,2147459346,2147081773,2146963922,2147649856,2147122322,2487,-1,9,38465
1348416088,5807,253.7100067138672000,18.9813003540039060,36.6172981262207000,228.8984985351562500,122.4076995849609400,18.9912605285644530,30.5940494537353500,53,102,95,77,60,13228,2146949760,2147511698,2147261394,2147457545,2147077348,2146966098,2147656667,2147121545,2617,-2,8,9516
1348416220,5804,242.0000000000000000,19.1537990570068360,36.6147994995117200,230.7879943847656200,117.0791015625000000,19.1526203155517580,30.4309005737304700,53,103,97,77,60,13224,2146956891,2147510848,2147259940,2147455424,2147077485,2146966921,2147653449,2147124763,2444,-1,9,21715
1348416344,5806,230.9600067138672000,19.2122993469238280,36.5904006958007800,241.4311981201172000,115.0856018066406200,19.2130107879638670,29.8999004364013670,51,100,96,78,60,13228,2146955556,2147512393,2147260333,2147455972,2147081389,2146970349,2147659200,2147124242,2536,-1,8,13187
1348416465,5803,220.0700073242187500,19.3005008697509770,36.6001014709472660,240.9474945068359400,112.2400970458984400,19.2992305755615230,29.8851795196533200,53,101,95,77,60,13222,2146952850,2147509577,2147264164,2147454281,2147076580,2146975606,2147663579,2147126098,2383,-2,8,45300
1348416586,5806,209.1699981689453000,19.3372993469238280,36.5856018066406250,243.1062011718750000,111.1144027709961000,19.3333396911621100,29.7712402343750000,55,104,97,77,59,13223,2146954834,2147511186,2147262418,2147454345,2147084754,2146971364,2147668361,2147124690,2078,-2,9,10616
1348416709,5806,198.1199951171875000,19.3561992645263670,36.5778999328613300,245.9564971923828000,110.5086975097656200,19.3516998291015620,29.6338100433349600,60,104,96,79,58,13219,2146953609,2147509193,2147260004,2147450285,2147080649,2146967241,2147664740,2147126189,1441,-1,9,64775
1348416764,5804,193.1499938964843800,19.3864994049072270,36.5806999206543000,247.4683074951172000,109.4768981933593800,19.3829708099365230,29.5525703430175780,61,104,97,77,58,13217,2146956260,2147510363,2147263360,2147451794,2147084745,2146975926,2147664310,2147125092,1306,-2,9,61518
1348416819,5804,188.1399993896484400,19.4158992767334000,36.5849990844726560,247.4340057373047000,108.4981994628906200,19.4126396179199220,29.5414905548095700,63,105,97,78,59,13217,2146954304,2147510893,2147261942,2147452864,2147086555,2146974052,2147667337,2147121334,1204,-1,8,8797
1348416874,5806,183.1799926757812500,19.4699993133544920,36.5923995971679700,246.5789031982422000,106.8937988281250000,19.4612808227539060,29.5591392517089840,64,105,97,79,59,13213,2146955547,2147512960,2147261348,2147451858,2147083492,2146979520,2147671222,2147123291,867,-1,9,17902
1348416929,5806,178.2200012207031200,19.4808006286621100,36.5895004272460940,245.7731018066406200,106.2453002929687500,19.4809494018554700,29.5871105194091800,60,106,97,78,60,13217,2146956333,2147511094,2147263094,2147450843,2147088393,2146985828,2147677046,2147125558,809,-1,8,53047
1348417004,5808,171.8899993896484400,19.5426998138427730,36.5950012207031250,245.3175048828125000,104.4381027221679700,19.5357494354248050,29.5842800140380860,64,107,97,77,59,13213,2146953499,2147513069,2147265508,2147452150,2147081298,2146985033,2147684571,2147124461,636,-2,9,26088
1348417059,5808,167.6699981689453000,19.5680999755859380,36.5962982177734400,245.0666961669922000,103.4112014770507800,19.5668907165527340,29.5823097229003900,68,108,98,78,59,13209,2146953828,2147512557,2147263049,2147454363,2147090057,2146987894,2147693961,2147125805,818,-1,8,62625
1348417114,5807,163.6199951171875000,19.6096992492675780,36.6011009216308600,244.7751007080078000,102.0650024414062500,19.6077308654785160,29.5780391693115230,74,113,98,78,59,13200,2146953865,2147513883,2147262720,2147450596,2147093814,2146992265,2147693970,2147126061,698,-2,9,61616
1348417169,5807,159.7599945068359400,19.6830005645751950,36.6055984497070300,245.3471069335937500,99.8100891113281200,19.6761398315429700,29.5229606628417970,82,111,98,79,60,13198,2146956470,2147511113,2147261138,2147450249,2147092196,2146995245,2147693760,2147128448,626,-1,8,24815
1348417224,5808,156.0399932861328000,19.6630992889404300,36.5853004455566400,250.1974029541015600,100.1356964111328100,19.6662597656250000,29.3109092712402340,84,116,98,79,60,13190,2146955574,2147510464,2147260672,2147452342,2147095844,2146998528,2147699885,2147129270,357,-2,9,52807
1348417314,5807,150.6100006103515600,19.7439994812011720,36.5903015136718750,257.7691040039062500,97.7871780395507800,19.7375297546386720,28.9532909393310550,89,112,98,78,61,13188,2146956105,2147513462,2147263158,2147450404,2147092105,2147003977,2147712228,2147131181,678,-2,8,7444
1348417402,5806,146.3600006103515600,19.8416996002197270,36.6001014709472660,259.7692871093750000,94.7010269165039000,19.8311996459960940,28.8294506072998050,94,113,98,79,61,13175,2146954377,2147509961,2147260452,2147449069,2147097344,2147006976,2147716617,2147128228,515,-1,9,25848
1348417479,5807,142.7400054931640600,19.9468994140625000,36.6110000610351560,260.2791137695312500,90.9977493286132800,19.9436607360839840,28.7608699798584000,97,112,98,79,60,13177,2146952859,2147509723,2147263753,2147447661,2147100836,2147021613,2147739840,2147130459,708,-1,8,52201
1348417567,5804,138.6100006103515600,20.0641994476318360,36.6263999938964840,261.0693969726562500,87.1196136474609400,20.0614700317382800,28.6786804199218750,99,113,99,79,61,13178,2146953517,2147512978,2147262464,2147446473,2147106861,2147039972,2147757156,2147130285,1065,-2,9,62990
1348417657,5806,134.4600067138672000,20.1359996795654300,36.6090011596679700,264.8345031738281000,84.8822937011718800,20.1294593811035160,28.4946098327636720,102,112,99,79,59,13171,2146955904,2147516672,2147268160,2147447286,2147120457,2147068461,2147792941,2147136173,812,-1,9,54348
1348417745,5805,130.3899993896484400,20.2523994445800780,36.6214981079101560,267.8369140625000000,81.0103530883789000,20.2471694946289060,28.3235797882080080,101,115,100,82,58,13168,2146952923,2147513590,2147268406,2147449517,2147138432,2147119259,2147859136,2147139474,737,-1,9,9167
1348417822,5805,126.7399978637695300,20.3829002380371100,36.6290016174316400,269.2684936523437500,76.9019699096679700,20.3721294403076170,28.2144107818603500,104,116,99,80,58,13162,2146954989,2147519698,2147273088,2147451117,2147163876,2147178038,2147935204,2147150116,586,-1,9,48539
1348417910,5806,122.6399993896484400,20.4957008361816400,36.6484985351562500,269.3630065917969000,73.2577972412109400,20.4830207824707030,28.1649894714355470,106,117,99,79,59,13164,2146959350,2147521380,2147274276,2147450029,2147198217,2147256329,2148026221,2147154733,790,-2,9,43666
1348418000,5805,118.6399993896484400,20.6576995849609380,36.6719017028808600,267.5985107421875000,68.0191116333007800,20.6425304412841800,28.1705894470214840,106,117,98,80,58,13150,2146959149,2147522121,2147274477,2147447817,2147211017,2147263140,2148025005,2147153865,855,-1,9,28951
1348418099,5803,115.1299972534179700,20.8134002685546880,36.6766014099121100,264.3723144531250000,63.1418609619140600,20.7911396026611330,28.2406196594238280,123,121,100,79,60,13144,2146958765,2147522587,2147278308,2147448521,2147236690,2147304256,2148062628,2147158866,1181,-1,9,40596
1348418285,5805,110.8700027465820300,20.9554004669189450,36.6747016906738300,268.2005920410156000,58.0513801574707000,20.9463405609130860,28.0221595764160160,111,118,99,79,57,13141,2146967588,2147530825,2147289828,2147444379,2147345252,2147529014,2148305846,2147181156,1589,-2,9,23218
1348418395,5805,107.2200012207031200,21.0594997406005860,36.6706008911132800,273.3420104980469000,54.5586585998535160,21.0529003143310550,27.7749195098876950,101,120,101,82,58,13139,2146971437,2147540425,2147301485,2147445888,2147467062,2147730834,2148513216,2147199588,1442,-2,9,7568
1348418527,5805,103.1999969482421900,21.2392997741699220,36.6455993652343750,276.5827941894531000,48.9713287353515600,21.2234592437744140,27.5798492431640620,99,122,101,80,58,13132,2146979200,2147556544,2147318226,2147447789,2147673334,2148086400,2148856448,2147231076,965,-1,9,22794
1348418660,5804,98.5100021362304700,21.5410003662109380,36.6338005065918000,277.8017883300781000,38.6059799194335940,21.5402698516845700,27.4057693481445300,92,126,101,80,57,13122,2146998646,2147586560,2147353810,2147444123,2148117668,2148800722,2149533906,2147291236,1040,-2,9,39284
1348418715,5807,96.3899993896484400,21.8155994415283200,36.6318016052246100,278.5071105957031000,30.5455093383789060,21.7869892120361330,27.2803592681884770,95,127,101,82,56,13128,2147011913,2147607881,2147376393,2147444077,2148426084,2149303725,2149996964,2147332800,529,-1,9,23851
1348418770,5806,94.7099990844726600,22.0893993377685550,36.6626014709472660,278.3652038574219000,23.4503097534179700,22.0044193267822270,27.1992092132568360,90,125,101,82,56,13133,2147028790,2147627163,2147399670,2147449252,2148739300,2149802651,2150468736,2147375067,530,-2,9,42900
1348418825,5805,93.4300003051757800,22.0720005035400400,36.6562004089355500,279.7482910156250000,21.7726993560791000,22.0558700561523440,27.1261997222900400,91,123,102,81,57,13122,2147035291,2147636269,2147403072,2147447762,2148880466,2149985142,2150610139,2147385654,868,-1,9,54733
1348418915,5805,90.9199981689453100,22.1791000366210940,36.6433982849121100,280.6755065917969000,18.2703399658203120,22.1633300781250000,27.0487098693847660,84,126,102,82,55,13127,2147035538,2147635593,2147398976,2147445385,2148955620,2149988681,2150509833,2147378523,800,-1,9,10956
1348418970,5803,88.6100006103515600,22.3384990692138670,36.6642990112304700,280.8337097167969000,12.8560104370117190,22.3295707702636720,26.9770298004150400,87,125,101,80,57,13124,2147058916,2147652050,2147416347,2147449206,2149288173,2150441152,2150868580,2147409837,1229,-2,9,35614
1348419025,5805,86.5800018310546900,22.5247001647949220,36.6837997436523440,280.9255981445312500,7.3245410919189450,22.4995803833007800,26.9066505432128900,86,126,101,81,55,13127,2147064676,2147667940,2147420416,2147445641,2149533202,2150731154,2151073462,2147427264,1045,-2,9,21990
1348419080,5806,84.7699966430664000,22.7577991485595700,36.7155990600585940,280.5728149414062500,0.2847164869308472,22.7161998748779300,26.8348293304443360,84,124,100,82,56,13130,2147075346,2147677321,2147427337,2147447140,2149695451,2150899401,2151166674,2147435858,831,-2,9,2037
1348419135,5805,83.1399993896484400,23.0167999267578120,36.7527999877929700,280.5440979003906000,-7.3996782302856445,22.9529705047607420,26.7433490753173830,82,124,104,83,55,13116,2147080228,2147682523,2147432621,2147444672,2149828077,2151046564,2151236480,2147442788,493,-2,9,11785
1348419225,5807,80.5800018310546900,23.3024997711181640,36.7849006652832000,280.3277893066406000,-17.6251792907714840,23.2685794830322270,26.6284694671630860,81,125,101,83,56,13125,2147105005,2147704768,2147454262,2147446345,2150341851,2151657654,2151666669,2147480557,659,-2,9,15864
1348419280,5806,78.6699981689453100,23.3311004638671880,36.7555007934570300,280.4991149902344000,-19.5421695709228500,23.3278198242187500,26.5990200042724600,80,153,103,82,55,13127,2147126921,2147731904,2147474121,2147445860,2150826422,2152252160,2152099574,2147519963,544,-2,9,13349
1348419335,5805,76.8300018310546900,23.5202007293701170,36.7631988525390600,280.0885925292969000,-25.0099105834960940,23.4969100952148440,26.5487403869628900,79,124,103,81,55,13114,2147142281,2147749677,2147489645,2147446957,2151190848,2152670290,2152389476,2147547318,118,-1,9,60973
1348419390,5804,75.3300018310546900,23.6172008514404300,36.7648010253906250,280.6093139648437500,-28.0653705596923830,23.5914802551269530,26.4928894042968750,79,128,104,84,56,13115,2147153517,2147758866,2147496420,2147445074,2151365129,2152825234,2152480768,2147550445,3382,-2,9,18048
1348419478,5804,73.3499984741211000,23.5926990509033200,36.7052993774414060,280.2883911132812500,-28.1940097808837900,23.5954608917236330,26.5031890869140620,83,128,105,84,55,13114,2147156818,2147760356,2147491958,2147442258,2151428580,2152840841,2152425462,2147545965,3344,-2,9,6065
1348419578,5806,71.0699996948242200,23.8822002410888670,36.6101989746093750,277.9892883300781000,-36.0639915466308600,23.8393402099609380,26.4950294494628900,79,128,101,83,56,13118,2147173229,2147784649,2147508909,2147442212,2151952173,2153427858,2152836141,2147585280,336,-2,9,3309
1348419666,5805,69.9400024414062500,24.2852001190185550,36.5906982421875000,276.4985961914062500,-48.8442687988281250,24.2362594604492200,26.3983306884765620,83,126,102,83,55,13116,2147190491,2147802761,2147529353,2147442605,2152332242,2153880457,2153197878,2147620544,3411,-2,9,29794
1348419954,5805,67.5400009155273400,24.4734001159667970,36.5466995239257800,275.4472961425781000,-55.1174697875976560,24.4314994812011720,26.3631591796875000,83,126,104,82,56,13071,2147199177,2147806930,2147532480,2147441325,2152531300,2154047917,2153272384,2147633709,3323,-1,9,57223
1348420020,5806,66.6500015258789000,24.5688991546630860,36.5499992370605500,275.1741027832031000,-57.8816299438476560,24.5176200866699220,26.3404293060302730,81,125,104,82,55,13102,2147188717,2147794852,2147519680,2147440566,2152300452,2153715785,2152996233,2147609344,3535,-1,9,52524
1348420231,5804,64.1200027465820300,24.9223995208740230,36.5281982421875000,273.1192932128906000,-68.4789810180664000,24.8482894897460940,26.2920303344726560,78,129,104,83,55,13101,2147150244,2147742957,2147466486,2147435968,2151396461,2152444562,2151917348,2147518345,3221,-1,9,34735
1348420374,5808,62.9500007629394500,25.0853996276855470,36.5149993896484400,271.5281066894531000,-73.8128662109375000,25.0150394439697270,26.2891292572021500,84,125,105,83,55,13107,2147144676,2147734253,2147460489,2147432768,2151294208,2152313280,2151823716,2147509961,3139,-1,9,47096
1348420573,5806,60.7000007629394500,25.4899005889892580,36.4421997070312500,262.6440124511719000,-87.8122634887695300,25.4537296295166000,26.4678096771240230,83,125,131,84,54,13111,2147151021,2147736740,2147463771,2147435849,2151460096,2152457353,2151917842,2147525750,812,-2,9,13247
1348420817,5806,58.0299987792968750,25.6662998199462900,36.4220008850097660,252.2317047119140600,-94.4161071777343800,25.6611995697021500,26.8103809356689450,80,126,102,83,56,13111,2147161664,2147748662,2147469403,2147433874,2151815890,2152818962,2152162422,2147563126,459,-1,9,30551
1348420883,5803,56.4500007629394500,25.8729000091552730,36.3851013183593750,247.0319976806640600,-99.6143798828125000,25.8247604370117200,26.9657802581787100,81,128,102,82,55,13075,2147161362,2147753426,2147476946,2147431396,2151930002,2152929874,2152228973,2147575076,3310,-1,10,34152
1348421235,5806,52.6599998474121100,26.3262004852294920,36.3288002014160160,236.9685974121093800,-114.6037979125976600,26.2976493835449220,27.2201499938964840,81,129,102,83,57,13088,2147148544,2147737755,2147460544,2147429677,2151641435,2152529947,2151909504,2147561188,243,-2,9,928
1348421269,5803,52.2900009155273440,26.4151992797851560,36.3207015991210940,236.4508972167968800,-116.4119033813476600,26.3548107147216800,27.2212295532226560,82,132,103,83,56,13092,2147148982,2147735972,2147461805,2147431131,2151669833,2152552036,2151929773,2147565997,3323,-2,9,13550
1348421457,5802,50.8899993896484400,26.6459007263183600,36.2817001342773440,238.5738067626953000,-124.7959976196289000,26.6202907562255860,27.0252494812011720,80,129,104,82,56,13092,2147152301,2147730093,2147453074,2147430272,2151626166,2152437440,2151815387,2147569206,1573,-2,9,25459
1348421765,5804,48.6800003051757800,27.1259994506835940,36.2088012695312500,238.1327972412109400,-139.7711029052734400,27.0960006713867200,26.8626899719238280,83,129,103,82,55,13089,2147123638,2147695104,2147417362,2147424685,2150968685,2151560905,2151098048,2147504475,1063,-1,9,40109
1348422073,5807,46.6300010681152340,27.3428993225097660,36.1660995483398440,237.0608062744140600,-147.3670959472656200,27.3380908966064450,26.8175792694091800,76,124,101,82,55,13105,2147126528,2147698294,2147413632,2147421641,2150978185,2151494701,2151019126,2147508379,1188,-2,10,22188
1348422154,5805,44.7799987792968750,27.4307994842529300,36.1405982971191400,236.1342926025390600,-150.0323028564453000,27.4231605529785160,26.8262500762939450,75,123,100,82,56,13111,2147145819,2147712685,2147428342,2147423113,2151367716,2151876900,2151275666,2147543469,1488,-2,10,39785
1348422295,5804,42.9199981689453100,27.5006999969482420,36.1236000061035160,235.2693023681640600,-151.7854003906250000,27.4791507720947270,26.8431205749511720,79,119,101,81,54,13114,2147164114,2147729298,2147436004,2147423030,2151799049,2152279945,2151539757,2147592246,1432,-1,9,24923
1348422411,5806,40.8100013732910160,27.6350002288818360,36.0971984863281250,233.8905944824218800,-156.4425964355468800,27.6280403137207030,26.8478603363037100,72,121,99,81,54,13124,2147194496,2147757906,2147452626,2147425828,2152451227,2152872329,2151899163,2147643657,310,-2,9,22893
1348422492,5807,38.9199981689453100,27.6616001129150400,36.0926017761230500,233.2884979248047000,-157.4651031494140600,27.6607608795166000,26.8622093200683600,69,117,101,81,55,13124,2147231323,2147784713,2147477220,2147426230,2153214482,2153568722,2152323574,2147711780,19,-2,9,29842
1348422537,5804,37.7299995422363300,27.6644001007080080,36.0910987854003900,233.2534027099609400,-157.5706024169922000,27.6641292572021500,26.8625907897949220,68,119,99,82,55,13132,2147249216,2147804141,2147482358,2147429568,2153661769,2153971072,2152575899,2147752411,3386,-1,10,46029